DAL70 OMDB-KJFK

Flight info

Callsign DAL70
Flight time N/A
Altitude 34000
Route ANVIX5G ANVIX DCT GIDIS G783 RIGIL M628 PEKEM DCT AMBAG M321 KSA T503 OVANO L768 MODAD B544 ALE M861 NISAP UM861 BELSU UA17 YAVRU UA4 ERKAL UL615 DIGBO UQ26 TUDBU/N0487F360 Q26 ETUBA T226 NAVOD DCT PADGU DCT KEROP DCT SASAL DCT SUBEN T161 AKINI T159 PETIX Z744 COSJE T892 RIDSU Z114 ADENU L608 DENUT L610 KOPUL Q60 OKSAW DCT KRAGY/N0486F380 DCT TIPUR DCT GISTI DCT MALOT/M085F390 DCT 54N020W 54N030W 54N040W 53N050W DCT RIKAL/N0480F400 N572A TOPPS DCT ENE PARCH4
Aircraft A359/H-V/N

Departure

Time 2026-05-05 18:02
Airport Dubai International Airport (OMDB)

Arrival

Time N/A
Airport John F. Kennedy International Airport (KJFK)
Time Latitude Longitude Altitude Speed Heading
2026-05-05 17:12 25.24277 55.37100 27 ft 0 kts 31°
2026-05-05 17:36 25.24276 55.37100 27 ft 0 kts 31°
2026-05-05 17:45 25.24276 55.37099 27 ft 0 kts 31°
2026-05-05 17:52 25.24275 55.37099 27 ft 0 kts 31°
2026-05-05 17:52 25.24272 55.37097 26 ft 2 kts 31°
2026-05-05 17:53 25.24250 55.37082 26 ft 4 kts 31°
2026-05-05 17:53 25.24232 55.37070 25 ft 2 kts 31°
2026-05-05 17:53 25.24223 55.37063 25 ft 4 kts 43°
2026-05-05 17:53 25.24210 55.37040 25 ft 4 kts 88°
2026-05-05 17:54 25.24215 55.37013 26 ft 4 kts 119°
2026-05-05 17:54 25.24228 55.36989 26 ft 4 kts 122°
2026-05-05 17:54 25.24242 55.36964 26 ft 3 kts 122°
2026-05-05 17:54 25.24245 55.36959 25 ft 0 kts 122°
2026-05-05 17:56 25.24248 55.36968 25 ft 5 kts 66°
2026-05-05 17:56 25.24292 55.36919 27 ft 13 kts 319°
2026-05-05 17:57 25.24337 55.36806 27 ft 19 kts 295°
2026-05-05 17:57 25.24412 55.36731 27 ft 11 kts
2026-05-05 17:57 25.24505 55.36780 27 ft 21 kts 30°
2026-05-05 17:57 25.24660 55.36886 27 ft 29 kts 32°
2026-05-05 17:58 25.24822 55.36904 28 ft 23 kts 310°
2026-05-05 17:58 25.24872 55.36741 28 ft 22 kts 286°
2026-05-05 17:58 25.24936 55.36586 27 ft 22 kts 301°
2026-05-05 17:58 25.25014 55.36446 27 ft 21 kts 301°
2026-05-05 17:59 25.25090 55.36312 27 ft 20 kts 302°
2026-05-05 17:59 25.25165 55.36179 27 ft 21 kts 301°
2026-05-05 17:59 25.25243 55.36039 27 ft 22 kts 302°
2026-05-05 17:59 25.25327 55.35892 27 ft 23 kts 302°
2026-05-05 18:00 25.25398 55.35768 27 ft 17 kts 308°
2026-05-05 18:00 25.25503 55.35765 27 ft 17 kts 28°
2026-05-05 18:00 25.25591 55.35844 27 ft 16 kts 71°
2026-05-05 18:00 25.25548 55.35962 27 ft 26 kts 122°
2026-05-05 18:01 25.25360 55.36299 28 ft 76 kts 121°
2026-05-05 18:01 25.25004 55.36941 31 ft 119 kts 121°
2026-05-05 18:01 25.24500 55.37847 30 ft 157 kts 121°
2026-05-05 18:01 25.23893 55.38926 314 ft 164 kts 123°
2026-05-05 18:02 25.23276 55.39961 702 ft 163 kts 124°
2026-05-05 18:02 25.22592 55.41022 884 ft 177 kts 128°
2026-05-05 18:02 25.21801 55.42170 964 ft 200 kts 127°
2026-05-05 18:02 25.20966 55.43509 1069 ft 224 kts 123°
2026-05-05 18:03 25.20113 55.45022 1331 ft 240 kts 120°
2026-05-05 18:03 25.19318 55.46639 1742 ft 239 kts 117°
2026-05-05 18:03 25.18528 55.48255 2144 ft 240 kts 118°
2026-05-05 18:03 25.17698 55.49866 2489 ft 244 kts 119°
2026-05-05 18:04 25.16827 55.51490 2844 ft 247 kts 120°
2026-05-05 18:04 25.16237 55.52570 3089 ft 249 kts 120°
2026-05-05 18:04 25.15327 55.54212 3456 ft 253 kts 121°
2026-05-05 18:04 25.14400 55.55873 3840 ft 255 kts 121°
2026-05-05 18:05 25.13461 55.57546 4232 ft 258 kts 121°
2026-05-05 18:05 25.12509 55.59241 4590 ft 262 kts 121°
2026-05-05 18:05 25.11526 55.60942 4952 ft 264 kts 125°
2026-05-05 18:05 25.10317 55.62493 5237 ft 271 kts 133°
2026-05-05 18:06 25.08966 55.63998 5449 ft 280 kts 135°
2026-05-05 18:06 25.08044 55.65006 5666 ft 283 kts 135°
2026-05-05 18:06 25.06172 55.67060 6265 ft 282 kts 136°
2026-05-05 18:06 25.04785 55.68586 6676 ft 283 kts 136°
2026-05-05 18:07 25.03388 55.70126 7030 ft 286 kts 136°
2026-05-05 18:07 25.01975 55.71683 7378 ft 288 kts 136°
2026-05-05 18:07 25.00551 55.73252 7763 ft 291 kts 136°
2026-05-05 18:07 24.99116 55.74835 8160 ft 293 kts 136°
2026-05-05 18:08 24.97673 55.76428 8558 ft 295 kts 135°
2026-05-05 18:08 24.96218 55.78034 8958 ft 297 kts 135°
2026-05-05 18:08 24.94722 55.79612 9370 ft 299 kts 142°
2026-05-05 18:08 24.92947 55.80788 9774 ft 299 kts 156°
2026-05-05 18:09 24.91025 55.81720 10050 ft 306 kts 158°
2026-05-05 18:09 24.89030 55.82649 10231 ft 317 kts 158°
2026-05-05 18:09 24.86967 55.83611 10395 ft 327 kts 158°
2026-05-05 18:09 24.84885 55.84697 10579 ft 337 kts 149°
2026-05-05 18:10 24.83143 55.86414 10764 ft 346 kts 130°
2026-05-05 18:10 24.81636 55.88575 10944 ft 356 kts 127°
2026-05-05 18:10 24.80100 55.90751 11071 ft 364 kts 133°
2026-05-05 18:10 24.78135 55.92533 11192 ft 371 kts 151°
2026-05-05 18:11 24.75740 55.93524 11316 ft 377 kts 170°
2026-05-05 18:11 24.73079 55.93829 11468 ft 384 kts 178°
2026-05-05 18:11 24.70420 55.93857 11579 ft 391 kts 181°
2026-05-05 18:11 24.67683 55.93755 11780 ft 396 kts 183°
2026-05-05 18:12 24.64923 55.93610 12024 ft 399 kts 183°
2026-05-05 18:12 24.62155 55.93260 12250 ft 402 kts 193°
2026-05-05 18:12 24.59520 55.92257 12519 ft 403 kts 207°
2026-05-05 18:12 24.57156 55.90608 12819 ft 403 kts 217°
2026-05-05 18:13 24.54946 55.88708 13105 ft 404 kts 220°
2026-05-05 18:13 24.52814 55.86680 13350 ft 407 kts 223°
2026-05-05 18:13 24.50709 55.84590 13615 ft 409 kts 223°
2026-05-05 18:13 24.48602 55.82483 13848 ft 411 kts 223°
2026-05-05 18:14 24.46478 55.80376 14094 ft 412 kts 223°
2026-05-05 18:14 24.44338 55.78277 14329 ft 414 kts 222°
2026-05-05 18:14 24.42173 55.76177 14559 ft 416 kts 222°
2026-05-05 18:14 24.39990 55.74074 14796 ft 418 kts 221°
2026-05-05 18:15 24.37800 55.71972 15046 ft 419 kts 221°
2026-05-05 18:15 24.35599 55.69866 15300 ft 421 kts 221°
2026-05-05 18:15 24.33391 55.67753 15551 ft 422 kts 222°
2026-05-05 18:15 24.31175 55.65629 15789 ft 424 kts 222°
2026-05-05 18:16 24.28954 55.63500 16036 ft 425 kts 222°
2026-05-05 18:16 24.26585 55.61543 16270 ft 428 kts 212°
2026-05-05 18:16 24.23886 55.60141 16525 ft 431 kts 202°
2026-05-05 18:16 24.21051 55.59054 16755 ft 433 kts 198°
2026-05-05 18:17 24.18155 55.58123 17007 ft 435 kts 196°
2026-05-05 18:17 24.15226 55.57268 17265 ft 436 kts 195°
2026-05-05 18:17 24.12277 55.56436 17496 ft 438 kts 195°
2026-05-05 18:17 24.09320 55.55599 17753 ft 440 kts 195°
2026-05-05 18:18 24.06361 55.54748 17997 ft 441 kts 196°
2026-05-05 18:18 24.03427 55.53891 18215 ft 443 kts 196°
2026-05-05 18:18 24.00452 55.53011 18424 ft 444 kts 196°
2026-05-05 18:18 23.97461 55.52123 18626 ft 446 kts 197°
2026-05-05 18:19 23.94461 55.51230 18809 ft 448 kts 197°
2026-05-05 18:19 23.91456 55.50335 19036 ft 449 kts 196°
2026-05-05 18:19 23.88437 55.49437 19276 ft 449 kts 197°
2026-05-05 18:19 23.85418 55.48541 19453 ft 451 kts 196°
2026-05-05 18:20 23.82382 55.47645 19665 ft 452 kts 196°
2026-05-05 18:20 23.79340 55.46743 19873 ft 454 kts 196°
2026-05-05 18:20 23.76292 55.45836 20087 ft 455 kts 196°
2026-05-05 18:20 23.73232 55.44926 20294 ft 456 kts 197°
2026-05-05 18:21 23.70164 55.44014 20498 ft 458 kts 197°
2026-05-05 18:21 23.67086 55.43100 20671 ft 460 kts 197°
2026-05-05 18:21 23.63995 55.42183 20873 ft 461 kts 197°
2026-05-05 18:21 23.60895 55.41265 21091 ft 462 kts 197°
2026-05-05 18:22 23.57789 55.40345 21296 ft 463 kts 197°
2026-05-05 18:22 23.54673 55.39424 21525 ft 465 kts 197°
2026-05-05 18:22 23.51549 55.38500 21720 ft 466 kts 197°
2026-05-05 18:22 23.48414 55.37577 21927 ft 467 kts 197°
2026-05-05 18:23 23.45268 55.36648 22132 ft 469 kts 197°
2026-05-05 18:23 23.42119 55.35716 22338 ft 470 kts 197°
2026-05-05 18:23 23.38958 55.34780 22564 ft 471 kts 197°
2026-05-05 18:23 23.35788 55.33843 22754 ft 473 kts 197°
2026-05-05 18:24 23.32607 55.32903 22962 ft 474 kts 197°
2026-05-05 18:24 23.29418 55.31962 23152 ft 476 kts 197°
2026-05-05 18:24 23.26219 55.31018 23366 ft 477 kts 197°
2026-05-05 18:24 23.23009 55.30072 23527 ft 478 kts 197°
2026-05-05 18:25 23.19794 55.29125 23701 ft 479 kts 197°
2026-05-05 18:25 23.17662 55.28498 23801 ft 480 kts 197°
2026-05-05 18:25 23.13375 55.27121 24030 ft 480 kts 202°
2026-05-05 18:25 23.10323 55.25649 24195 ft 480 kts 210°
2026-05-05 18:26 23.07520 55.23698 24344 ft 479 kts 219°
2026-05-05 18:26 23.05064 55.21276 24538 ft 477 kts 229°
2026-05-05 18:26 23.03031 55.18436 24707 ft 476 kts 239°
2026-05-05 18:26 23.01482 55.15260 24896 ft 475 kts 249°
2026-05-05 18:27 23.00461 55.11860 25086 ft 475 kts 258°
2026-05-05 18:27 22.99693 55.08369 25278 ft 476 kts 258°
2026-05-05 18:27 22.99004 55.04854 25493 ft 477 kts 259°
2026-05-05 18:27 22.98348 55.01323 25700 ft 478 kts 259°
2026-05-05 18:28 22.97025 54.94232 26120 ft 480 kts 259°
2026-05-05 18:28 22.96342 54.90681 26340 ft 482 kts 259°
2026-05-05 18:28 22.95647 54.87127 26562 ft 483 kts 258°
2026-05-05 18:29 22.94942 54.83559 26787 ft 484 kts 258°
2026-05-05 18:29 22.94231 54.79983 26992 ft 485 kts 258°
2026-05-05 18:29 22.93517 54.76402 27222 ft 487 kts 258°
2026-05-05 18:29 22.92799 54.72809 27429 ft 488 kts 258°
2026-05-05 18:30 22.92078 54.69201 27631 ft 490 kts 258°
2026-05-05 18:30 22.91357 54.65594 27843 ft 491 kts 258°
2026-05-05 18:30 22.90631 54.61965 28040 ft 492 kts 258°
2026-05-05 18:30 22.89904 54.58336 28261 ft 493 kts 258°
2026-05-05 18:31 22.89175 54.54696 28446 ft 495 kts 258°
2026-05-05 18:31 22.88443 54.51051 28666 ft 495 kts 258°
2026-05-05 18:31 22.87711 54.47409 28958 ft 494 kts 258°
2026-05-05 18:31 22.86979 54.43769 29237 ft 493 kts 258°
2026-05-05 18:32 22.86249 54.40146 29513 ft 492 kts 258°
2026-05-05 18:32 22.85518 54.36522 29784 ft 491 kts 258°
2026-05-05 18:32 22.84788 54.32907 30017 ft 491 kts 258°
2026-05-05 18:32 22.84058 54.29297 30239 ft 490 kts 258°
2026-05-05 18:33 22.83338 54.25742 30461 ft 489 kts 258°
2026-05-05 18:33 22.82611 54.22153 30681 ft 487 kts 258°
2026-05-05 18:33 22.81882 54.18565 30902 ft 486 kts 258°
2026-05-05 18:33 22.81155 54.14986 31105 ft 486 kts 258°
2026-05-05 18:34 22.80429 54.11415 31317 ft 485 kts 258°
2026-05-05 18:34 22.79704 54.07854 31525 ft 484 kts 258°
2026-05-05 18:34 22.78980 54.04303 31725 ft 483 kts 257°
2026-05-05 18:34 22.78420 54.00721 31905 ft 482 kts 264°
2026-05-05 18:35 22.78273 53.97099 32073 ft 481 kts 271°
2026-05-05 18:35 22.78402 53.93476 32256 ft 481 kts 272°
2026-05-05 18:35 22.78610 53.89862 32422 ft 480 kts 273°
2026-05-05 18:35 22.78859 53.86258 32647 ft 479 kts 274°
2026-05-05 18:36 22.79123 53.82664 32854 ft 477 kts 274°
2026-05-05 18:36 22.79386 53.79082 33014 ft 477 kts 273°
2026-05-05 18:36 22.79645 53.75501 33153 ft 477 kts 273°
2026-05-05 18:36 22.79897 53.71919 33296 ft 476 kts 273°
2026-05-05 18:37 22.80143 53.68344 33458 ft 475 kts 273°
2026-05-05 18:37 22.80386 53.64778 33603 ft 475 kts 273°
2026-05-05 18:37 22.80626 53.61203 33737 ft 474 kts 273°
2026-05-05 18:37 22.80865 53.57635 33783 ft 476 kts 272°
2026-05-05 18:38 22.81343 53.50447 33788 ft 480 kts 272°
2026-05-05 18:38 22.81823 53.43212 33785 ft 481 kts 272°
2026-05-05 18:39 22.82299 53.35984 33786 ft 481 kts 272°
2026-05-05 18:39 22.82771 53.28761 33779 ft 480 kts 272°
2026-05-05 18:40 22.83241 53.21536 33788 ft 481 kts 272°
2026-05-05 18:40 22.83708 53.14306 33801 ft 481 kts 272°
2026-05-05 18:41 22.84171 53.07077 33791 ft 480 kts 272°
2026-05-05 18:41 22.84627 52.99907 33790 ft 480 kts 272°
2026-05-05 18:42 22.85082 52.92691 33792 ft 480 kts 272°
2026-05-05 18:42 22.85535 52.85472 33791 ft 480 kts 272°
2026-05-05 18:43 22.85984 52.78258 33793 ft 480 kts 272°
2026-05-05 18:43 22.86430 52.71037 33794 ft 480 kts 272°
2026-05-05 18:44 22.86873 52.63805 33792 ft 480 kts 272°
2026-05-05 18:44 22.87313 52.56575 33792 ft 481 kts 272°
2026-05-05 18:45 22.87750 52.49347 33790 ft 480 kts 272°
2026-05-05 18:45 22.88183 52.42120 33791 ft 480 kts 272°
2026-05-05 18:46 22.88614 52.34884 33792 ft 481 kts 272°
2026-05-05 18:46 22.89041 52.27653 33799 ft 480 kts 272°
2026-05-05 18:47 22.89463 52.20438 33789 ft 479 kts 272°
2026-05-05 18:47 22.89883 52.13220 33789 ft 479 kts 272°
2026-05-05 18:48 22.90299 52.06012 33791 ft 479 kts 272°
2026-05-05 18:48 22.90712 51.98794 33795 ft 479 kts 272°
2026-05-05 18:49 22.91121 51.91582 33794 ft 479 kts 272°
2026-05-05 18:49 22.91528 51.84361 33794 ft 479 kts 272°
2026-05-05 18:50 22.91931 51.77140 33792 ft 480 kts 272°
2026-05-05 18:50 22.92331 51.69914 33792 ft 480 kts 272°
2026-05-05 18:51 22.92728 51.62688 33795 ft 480 kts 271°
2026-05-05 18:51 22.93056 51.56679 33794 ft 480 kts 271°
2026-05-05 18:52 22.93447 51.49446 33795 ft 481 kts 271°
2026-05-05 18:52 22.93836 51.42206 33794 ft 481 kts 271°
2026-05-05 18:53 22.94221 51.34967 33794 ft 481 kts 271°
2026-05-05 18:53 22.94603 51.27717 33797 ft 481 kts 271°
2026-05-05 18:54 22.94982 51.20469 33794 ft 481 kts 271°
2026-05-05 18:54 22.95358 51.13220 33795 ft 481 kts 271°
2026-05-05 18:55 22.95730 51.05972 33794 ft 481 kts 271°
2026-05-05 18:55 22.96100 50.98718 33797 ft 481 kts 271°
2026-05-05 18:56 22.96465 50.91471 33794 ft 481 kts 271°
2026-05-05 18:56 22.96828 50.84220 33795 ft 481 kts 271°
2026-05-05 18:57 22.97186 50.76986 33793 ft 479 kts 271°
2026-05-05 18:57 22.97541 50.69768 33794 ft 478 kts 271°
2026-05-05 18:58 22.97891 50.62562 33794 ft 479 kts 271°
2026-05-05 18:58 22.98238 50.55345 33791 ft 479 kts 271°
2026-05-05 18:59 22.98583 50.48128 33788 ft 479 kts 271°
2026-05-05 18:59 22.98924 50.40907 33788 ft 479 kts 271°
2026-05-05 19:00 22.99263 50.33682 33789 ft 479 kts 271°
2026-05-05 19:00 22.99598 50.26455 33790 ft 479 kts 271°
2026-05-05 19:01 22.99929 50.19225 33787 ft 479 kts 271°
2026-05-05 19:01 23.00255 50.12053 33786 ft 479 kts 271°
2026-05-05 19:02 23.00580 50.04847 33782 ft 477 kts 271°
2026-05-05 19:02 23.00900 49.97663 33787 ft 476 kts 271°
2026-05-05 19:03 23.01216 49.90484 33779 ft 476 kts 271°
2026-05-05 19:03 23.01529 49.83317 33780 ft 475 kts 271°
2026-05-05 19:04 23.01838 49.76147 33781 ft 475 kts 271°
2026-05-05 19:04 23.02144 49.68975 33778 ft 476 kts 271°
2026-05-05 19:05 23.02448 49.61790 33777 ft 477 kts 271°
2026-05-05 19:05 23.02748 49.54607 33777 ft 476 kts 271°
2026-05-05 19:06 23.03046 49.47420 33774 ft 477 kts 270°
2026-05-05 19:06 23.03340 49.40227 33773 ft 477 kts 270°
2026-05-05 19:07 23.03631 49.33047 33773 ft 475 kts 270°
2026-05-05 19:07 23.03915 49.25938 33769 ft 475 kts 270°
2026-05-05 19:08 23.04199 49.18767 33776 ft 476 kts 270°
2026-05-05 19:08 23.04479 49.11589 33776 ft 476 kts 270°
2026-05-05 19:09 23.04757 49.04410 33776 ft 476 kts 270°
2026-05-05 19:09 23.05031 48.97226 33776 ft 477 kts 270°
2026-05-05 19:10 23.05302 48.90039 33780 ft 477 kts 270°
2026-05-05 19:10 23.05571 48.82847 33771 ft 477 kts 270°
2026-05-05 19:11 23.05835 48.75661 33782 ft 477 kts 270°
2026-05-05 19:11 23.06097 48.68470 33792 ft 476 kts 270°
2026-05-05 19:12 23.06355 48.61294 33789 ft 475 kts 270°
2026-05-05 19:12 23.06609 48.54138 33786 ft 474 kts 270°
2026-05-05 19:13 23.06860 48.46983 33790 ft 474 kts 270°
2026-05-05 19:13 23.07107 48.39824 33788 ft 475 kts 270°
2026-05-05 19:14 23.07351 48.32661 33785 ft 475 kts 270°
2026-05-05 19:14 23.07593 48.25495 33790 ft 475 kts 270°
2026-05-05 19:15 23.07831 48.18328 33788 ft 475 kts 270°
2026-05-05 19:15 23.08065 48.11170 33786 ft 475 kts 269°
2026-05-05 19:16 23.08295 48.04053 33796 ft 475 kts 269°
2026-05-05 19:16 23.08524 47.96903 33794 ft 472 kts 269°
2026-05-05 19:17 23.08749 47.89794 33797 ft 471 kts 269°
2026-05-05 19:17 23.09831 47.82761 33810 ft 477 kts 284°
2026-05-05 19:18 23.12835 47.76303 33813 ft 486 kts 302°
2026-05-05 19:18 23.17746 47.71159 33820 ft 499 kts 321°
2026-05-05 19:19 23.23598 47.67051 33806 ft 502 kts 323°
2026-05-05 19:19 23.29573 47.63096 33819 ft 503 kts 323°
2026-05-05 19:20 23.35534 47.59123 33839 ft 502 kts 323°
2026-05-05 19:20 23.41471 47.55115 33838 ft 502 kts 322°
2026-05-05 19:21 23.47394 47.51095 33831 ft 502 kts 322°
2026-05-05 19:21 23.53319 47.47074 33831 ft 502 kts 322°
2026-05-05 19:22 23.59239 47.43045 33834 ft 502 kts 322°
2026-05-05 19:22 23.65159 47.39015 33831 ft 501 kts 322°
2026-05-05 19:23 23.71069 47.34989 33837 ft 500 kts 322°
2026-05-05 19:23 23.76974 47.30962 33837 ft 500 kts 322°
2026-05-05 19:24 23.82875 47.26934 33841 ft 499 kts 322°
2026-05-05 19:24 23.88723 47.22938 33840 ft 499 kts 322°
2026-05-05 19:25 23.94605 47.18914 33843 ft 499 kts 321°
2026-05-05 19:25 24.00485 47.14887 33843 ft 499 kts 321°
2026-05-05 19:26 24.06361 47.10858 33851 ft 498 kts 321°
2026-05-05 19:26 24.12386 47.07051 33854 ft 505 kts 329°
2026-05-05 19:27 24.18816 47.03916 33868 ft 507 kts 330°
2026-05-05 19:27 24.25306 47.00907 33855 ft 507 kts 330°
2026-05-05 19:28 24.31810 46.97906 33857 ft 507 kts 330°
2026-05-05 19:28 24.38303 46.94892 33882 ft 507 kts 330°
2026-05-05 19:29 24.44790 46.91868 33867 ft 506 kts 330°
2026-05-05 19:29 24.51275 46.88838 33873 ft 506 kts 330°
2026-05-05 19:30 24.57755 46.85808 33887 ft 506 kts 330°
2026-05-05 19:30 24.64237 46.82774 33878 ft 506 kts 330°
2026-05-05 19:31 24.70720 46.79736 33893 ft 506 kts 330°
2026-05-05 19:31 24.77161 46.76714 33918 ft 506 kts 330°
2026-05-05 19:32 24.83644 46.73670 33909 ft 507 kts 329°
2026-05-05 19:32 24.90122 46.70624 33910 ft 507 kts 329°
2026-05-05 19:33 24.96514 46.67411 33913 ft 499 kts 322°
2026-05-05 19:33 24.99366 46.65309 33911 ft 488 kts 314°
2026-05-05 19:33 25.01950 46.62915 33910 ft 484 kts 311°
2026-05-05 19:34 25.06931 46.57931 33908 ft 482 kts 309°
2026-05-05 19:35 25.14282 46.50341 33915 ft 483 kts 309°
2026-05-05 19:35 25.19187 46.45299 33896 ft 482 kts 309°
2026-05-05 19:36 25.24099 46.40263 33894 ft 482 kts 309°
2026-05-05 19:36 25.29011 46.35228 33898 ft 482 kts 309°
2026-05-05 19:37 25.33914 46.30196 33896 ft 480 kts 309°
2026-05-05 19:37 25.38799 46.25174 33895 ft 480 kts 309°
2026-05-05 19:38 25.43682 46.20148 33896 ft 479 kts 309°
2026-05-05 19:38 25.48562 46.15120 33894 ft 479 kts 309°
2026-05-05 19:39 25.53430 46.10100 33894 ft 477 kts 309°
2026-05-05 19:39 25.58279 46.05091 33890 ft 477 kts 309°
2026-05-05 19:40 25.62311 46.00922 33896 ft 477 kts 309°
2026-05-05 19:40 25.67156 45.95915 33892 ft 476 kts 308°
2026-05-05 19:41 25.71988 45.90904 33896 ft 475 kts 308°
2026-05-05 19:41 25.76817 45.85890 33892 ft 475 kts 308°
2026-05-05 19:42 25.81642 45.80876 33892 ft 475 kts 308°
2026-05-05 19:42 25.86467 45.75859 33891 ft 475 kts 308°
2026-05-05 19:43 25.91294 45.70840 33894 ft 475 kts 308°
2026-05-05 19:43 25.96115 45.65810 33901 ft 475 kts 308°
2026-05-05 19:44 26.00920 45.60791 33894 ft 474 kts 308°
2026-05-05 19:44 26.05719 45.55773 33894 ft 474 kts 308°
2026-05-05 19:45 26.10486 45.50784 33908 ft 474 kts 308°
2026-05-05 19:45 26.15281 45.45762 33894 ft 473 kts 308°
2026-05-05 19:46 26.20072 45.40744 33896 ft 473 kts 308°
2026-05-05 19:46 26.24864 45.35712 33894 ft 473 kts 308°
2026-05-05 19:47 26.29655 45.30675 33908 ft 474 kts 308°
2026-05-05 19:47 26.34450 45.25646 33893 ft 474 kts 308°
2026-05-05 19:48 26.39251 45.20610 33895 ft 473 kts 308°
2026-05-05 19:48 26.44046 45.15575 33903 ft 473 kts 307°
2026-05-05 19:49 26.48826 45.10549 33903 ft 472 kts 307°
2026-05-05 19:49 26.53605 45.05517 33905 ft 472 kts 307°
2026-05-05 19:50 26.58382 45.00482 33903 ft 471 kts 307°
2026-05-05 19:50 26.63159 44.95450 33911 ft 472 kts 307°
2026-05-05 19:51 26.67902 44.90438 33908 ft 473 kts 307°
2026-05-05 19:51 26.72676 44.85388 33909 ft 473 kts 307°
2026-05-05 19:52 26.77457 44.80328 33911 ft 473 kts 307°
2026-05-05 19:52 26.82232 44.75266 33911 ft 473 kts 307°
2026-05-05 19:53 26.87001 44.70191 33916 ft 473 kts 307°
2026-05-05 19:53 26.91762 44.65119 33919 ft 473 kts 307°
2026-05-05 19:54 26.96532 44.60033 33928 ft 474 kts 306°
2026-05-05 19:54 27.01315 44.54932 33917 ft 475 kts 306°
2026-05-05 19:55 27.06099 44.49816 33919 ft 475 kts 306°
2026-05-05 19:55 27.10876 44.44694 33919 ft 475 kts 306°
2026-05-05 19:56 27.15649 44.39572 33920 ft 474 kts 306°
2026-05-05 19:56 27.20415 44.34462 33919 ft 473 kts 306°
2026-05-05 19:57 27.25178 44.29350 33920 ft 473 kts 306°
2026-05-05 19:57 27.29935 44.24241 33922 ft 472 kts 306°
2026-05-05 19:58 27.34643 44.19179 33925 ft 470 kts 306°
2026-05-05 19:58 27.39365 44.14092 33928 ft 470 kts 306°
2026-05-05 19:59 27.44081 44.09004 33928 ft 470 kts 306°
2026-05-05 19:59 27.48796 44.03913 33928 ft 470 kts 306°
2026-05-05 20:00 27.53505 43.98823 33937 ft 469 kts 306°
2026-05-05 20:00 27.58206 43.93736 33934 ft 468 kts 306°
2026-05-05 20:01 27.62902 43.88645 33930 ft 468 kts 306°
2026-05-05 20:01 27.67595 43.83552 33928 ft 468 kts 306°
2026-05-05 20:02 27.72285 43.78456 33936 ft 468 kts 306°
2026-05-05 20:02 27.76973 43.73356 33936 ft 468 kts 306°
2026-05-05 20:03 27.81659 43.68251 33937 ft 468 kts 306°
2026-05-05 20:03 27.86324 43.63129 33945 ft 466 kts 304°
2026-05-05 20:04 27.90756 43.57817 33941 ft 464 kts 302°
2026-05-05 20:04 27.95116 43.52439 33941 ft 464 kts 302°
2026-05-05 20:05 27.99504 43.47082 33947 ft 465 kts 303°
2026-05-05 20:05 28.03921 43.41735 33980 ft 465 kts 303°
2026-05-05 20:06 28.08346 43.36386 33953 ft 466 kts 303°
2026-05-05 20:06 28.12772 43.31029 33957 ft 466 kts 303°
2026-05-05 20:07 28.17201 43.25658 33959 ft 466 kts 303°
2026-05-05 20:07 28.21622 43.20289 33968 ft 465 kts 303°
2026-05-05 20:08 28.26003 43.14964 33964 ft 465 kts 303°
2026-05-05 20:08 28.30438 43.09562 33969 ft 465 kts 303°
2026-05-05 20:09 28.34847 43.04186 33968 ft 465 kts 303°
2026-05-05 20:09 28.39216 42.98853 33972 ft 464 kts 303°
2026-05-05 20:10 28.43600 42.93496 33972 ft 463 kts 303°
2026-05-05 20:10 28.47981 42.88133 33977 ft 462 kts 303°
2026-05-05 20:11 28.52347 42.82782 33977 ft 462 kts 303°
2026-05-05 20:11 28.56709 42.77427 33979 ft 461 kts 303°
2026-05-05 20:12 28.61069 42.72068 33979 ft 461 kts 303°
2026-05-05 20:12 28.65430 42.66704 33985 ft 462 kts 303°
2026-05-05 20:13 28.69790 42.61337 34009 ft 462 kts 303°
2026-05-05 20:13 28.74146 42.55957 33991 ft 462 kts 303°
2026-05-05 20:14 28.78496 42.50578 33989 ft 462 kts 303°
2026-05-05 20:14 28.82849 42.45193 33991 ft 462 kts 303°
2026-05-05 20:15 28.87199 42.39804 34008 ft 462 kts 303°
2026-05-05 20:15 28.91563 42.34385 33998 ft 465 kts 303°
2026-05-05 20:16 28.95949 42.28935 33996 ft 466 kts 303°
2026-05-05 20:16 29.00336 42.23482 34002 ft 466 kts 303°
2026-05-05 20:17 29.04723 42.18021 33994 ft 467 kts 303°
2026-05-05 20:17 29.09121 42.12540 34015 ft 469 kts 303°
2026-05-05 20:18 29.13521 42.07040 33993 ft 469 kts 303°
2026-05-05 20:18 29.17923 42.01532 34013 ft 469 kts 303°
2026-05-05 20:19 29.22321 41.96022 34005 ft 469 kts 303°
2026-05-05 20:19 29.26730 41.90490 34004 ft 470 kts 303°
2026-05-05 20:20 29.31139 41.84954 34009 ft 470 kts 302°
2026-05-05 20:20 29.35509 41.79460 34006 ft 470 kts 302°
2026-05-05 20:21 29.39939 41.73882 34007 ft 468 kts 303°
2026-05-05 20:21 29.44289 41.68398 34009 ft 467 kts 302°
2026-05-05 20:22 29.48683 41.62847 34009 ft 467 kts 302°
2026-05-05 20:22 29.53019 41.57361 34012 ft 467 kts 302°
2026-05-05 20:23 29.57372 41.51849 34011 ft 465 kts 303°
2026-05-05 20:23 29.61713 41.46345 34012 ft 464 kts 302°
2026-05-05 20:24 29.66042 41.40844 34013 ft 464 kts 302°
2026-05-05 20:24 29.70373 41.35336 34014 ft 464 kts 302°
2026-05-05 20:25 29.74860 41.29947 34019 ft 471 kts 307°
2026-05-05 20:25 29.79717 41.24857 34021 ft 473 kts 308°
2026-05-05 20:26 29.84638 41.19815 34017 ft 473 kts 309°
2026-05-05 20:26 29.89563 41.14775 34021 ft 474 kts 308°
2026-05-05 20:27 29.94480 41.09724 34027 ft 474 kts 308°
2026-05-05 20:27 29.99398 41.04656 34022 ft 474 kts 308°
2026-05-05 20:28 30.04316 40.99579 34023 ft 474 kts 308°
2026-05-05 20:28 30.09227 40.94504 34025 ft 474 kts 308°
2026-05-05 20:29 30.13305 40.90285 34034 ft 473 kts 308°
2026-05-05 20:29 30.18204 40.85208 34022 ft 473 kts 308°
2026-05-05 20:30 30.23892 40.79306 34023 ft 473 kts 308°
2026-05-05 20:30 30.27992 40.75045 34024 ft 473 kts 308°
2026-05-05 20:31 30.32883 40.69956 34029 ft 473 kts 308°
2026-05-05 20:31 30.37768 40.64866 34028 ft 472 kts 308°
2026-05-05 20:32 30.42674 40.59794 34050 ft 473 kts 309°
2026-05-05 20:32 30.47609 40.54757 34028 ft 472 kts 309°
2026-05-05 20:33 30.52534 40.49724 34029 ft 472 kts 309°
2026-05-05 20:33 30.57448 40.44682 34024 ft 472 kts 309°
2026-05-05 20:34 30.62326 40.39665 34011 ft 472 kts 309°
2026-05-05 20:34 30.67238 40.34607 34027 ft 472 kts 309°
2026-05-05 20:35 30.72146 40.29545 34030 ft 472 kts 309°
2026-05-05 20:35 30.77085 40.24445 34068 ft 472 kts 309°
2026-05-05 20:36 30.81940 40.19428 34031 ft 469 kts 309°
2026-05-05 20:36 30.86818 40.14375 34023 ft 469 kts 309°
2026-05-05 20:37 30.91686 40.09325 34026 ft 469 kts 309°
2026-05-05 20:37 30.96553 40.04270 34031 ft 469 kts 309°
2026-05-05 20:38 31.01419 39.99209 34022 ft 469 kts 309°
2026-05-05 20:38 31.06281 39.94146 34023 ft 468 kts 309°
2026-05-05 20:39 31.11141 39.89077 34022 ft 468 kts 309°
2026-05-05 20:39 31.15999 39.84002 34032 ft 469 kts 308°
2026-05-05 20:40 31.20863 39.78913 34019 ft 469 kts 308°
2026-05-05 20:40 31.25721 39.73825 34014 ft 469 kts 308°
2026-05-05 20:41 31.30583 39.68726 34015 ft 469 kts 308°
2026-05-05 20:41 31.35436 39.63628 34018 ft 469 kts 308°
2026-05-05 20:42 31.40293 39.58518 34018 ft 469 kts 308°
2026-05-05 20:42 31.45145 39.53408 34015 ft 469 kts 308°
2026-05-05 20:43 31.49995 39.48291 34013 ft 469 kts 308°
2026-05-05 20:43 31.54809 39.43202 34015 ft 469 kts 308°
2026-05-05 20:44 31.59648 39.38080 34020 ft 469 kts 308°
2026-05-05 20:44 31.64490 39.32948 34025 ft 468 kts 308°
2026-05-05 20:45 31.71736 39.25256 34018 ft 468 kts 308°
2026-05-05 20:45 31.76558 39.20126 34022 ft 468 kts 308°
2026-05-05 20:46 31.81840 39.15483 34043 ft 485 kts 321°
2026-05-05 20:46 31.87807 39.11753 34048 ft 487 kts 323°
2026-05-05 20:47 31.93853 39.08214 34023 ft 485 kts 324°
2026-05-05 20:47 31.99893 39.04689 34027 ft 484 kts 323°
2026-05-05 20:48 32.05913 39.01150 34023 ft 484 kts 323°
2026-05-05 20:48 32.11931 38.97604 34030 ft 483 kts 323°
2026-05-05 20:49 32.17933 38.94060 34027 ft 482 kts 323°
2026-05-05 20:49 32.23930 38.90511 34029 ft 482 kts 323°
2026-05-05 20:50 32.29923 38.86961 34037 ft 482 kts 323°
2026-05-05 20:50 32.35909 38.83410 34066 ft 481 kts 323°
2026-05-05 20:51 32.41889 38.79859 34034 ft 480 kts 323°
2026-05-05 20:51 32.47862 38.76306 34034 ft 480 kts 323°
2026-05-05 20:52 32.53832 38.72748 34036 ft 480 kts 323°
2026-05-05 20:52 32.60161 38.69875 34037 ft 501 kts 337°
2026-05-05 20:53 32.63653 38.69247 34066 ft 512 kts 345°
2026-05-05 20:53 32.67218 38.68935 34032 ft 515 kts 347°
2026-05-05 20:53 32.74407 38.68595 34047 ft 518 kts 348°
2026-05-05 20:54 32.81613 38.68336 34036 ft 518 kts 348°
2026-05-05 20:54 32.88812 38.68041 34044 ft 517 kts 348°
2026-05-05 20:55 32.96005 38.67715 34040 ft 517 kts 348°
2026-05-05 20:55 33.03200 38.67380 34041 ft 517 kts 348°
2026-05-05 20:56 33.10394 38.67045 34037 ft 517 kts 348°
2026-05-05 20:56 33.17592 38.66699 34037 ft 518 kts 348°
2026-05-05 20:57 33.24790 38.66354 34037 ft 518 kts 348°
2026-05-05 20:57 33.31992 38.66012 34041 ft 519 kts 348°
2026-05-05 20:58 33.39211 38.65726 34044 ft 519 kts 348°
2026-05-05 20:58 33.46391 38.65261 34049 ft 509 kts 341°
2026-05-05 20:59 33.49802 38.64357 34038 ft 495 kts 332°
2026-05-05 20:59 33.53018 38.62985 34038 ft 489 kts 329°
2026-05-05 20:59 33.59301 38.59917 34036 ft 486 kts 327°
2026-05-05 21:00 33.65482 38.56738 34039 ft 487 kts 327°
2026-05-05 21:00 33.71701 38.53543 34057 ft 486 kts 327°
2026-05-05 21:01 33.77932 38.50366 34047 ft 485 kts 327°
2026-05-05 21:01 33.84150 38.47202 34044 ft 485 kts 327°
2026-05-05 21:02 33.90365 38.44035 34045 ft 485 kts 327°
2026-05-05 21:02 33.96578 38.40862 34045 ft 485 kts 327°
2026-05-05 21:03 34.02786 38.37687 34046 ft 485 kts 327°
2026-05-05 21:03 34.08999 38.34504 34045 ft 485 kts 327°
2026-05-05 21:04 34.15215 38.31315 34045 ft 485 kts 327°
2026-05-05 21:04 34.21427 38.28123 34043 ft 485 kts 327°
2026-05-05 21:05 34.27630 38.24930 34039 ft 484 kts 327°
2026-05-05 21:05 34.33826 38.21736 34038 ft 484 kts 327°
2026-05-05 21:06 34.40029 38.18532 34043 ft 484 kts 328°
2026-05-05 21:06 34.46210 38.15337 34037 ft 483 kts 327°
2026-05-05 21:07 34.52385 38.12138 34037 ft 483 kts 327°
2026-05-05 21:07 34.58489 38.08874 34037 ft 482 kts 327°
2026-05-05 21:08 34.64606 38.05526 34037 ft 482 kts 326°
2026-05-05 21:08 34.70719 38.02186 34036 ft 482 kts 327°
2026-05-05 21:09 34.76836 37.98854 34036 ft 482 kts 327°
2026-05-05 21:09 34.82972 37.95511 34033 ft 482 kts 327°
2026-05-05 21:10 34.89082 37.92183 34034 ft 479 kts 327°
2026-05-05 21:10 34.95155 37.88866 34032 ft 478 kts 327°
2026-05-05 21:11 35.01223 37.85542 34041 ft 478 kts 328°
2026-05-05 21:11 35.07274 37.82224 34035 ft 477 kts 328°
2026-05-05 21:12 35.13326 37.78901 34034 ft 477 kts 328°
2026-05-05 21:12 35.19379 37.75571 34023 ft 477 kts 327°
2026-05-05 21:13 35.25427 37.72239 34023 ft 477 kts 328°
2026-05-05 21:13 35.31476 37.68896 34016 ft 478 kts 328°
2026-05-05 21:14 35.37535 37.65548 34013 ft 478 kts 328°
2026-05-05 21:14 35.43595 37.62195 34012 ft 478 kts 328°
2026-05-05 21:15 35.48628 37.59405 34007 ft 478 kts 328°
2026-05-05 21:15 35.55658 37.55502 34000 ft 476 kts 329°
2026-05-05 21:16 35.61688 37.52147 34004 ft 476 kts 329°
2026-05-05 21:16 35.67715 37.48787 34001 ft 476 kts 329°
2026-05-05 21:17 35.72766 37.45967 33998 ft 475 kts 329°
2026-05-05 21:17 35.78770 37.42612 33998 ft 472 kts 329°
2026-05-05 21:18 35.84741 37.39269 33996 ft 471 kts 329°
2026-05-05 21:18 35.90705 37.35923 34002 ft 471 kts 329°
2026-05-05 21:19 35.96668 37.32574 34004 ft 471 kts 329°
2026-05-05 21:19 36.02663 37.29288 34013 ft 471 kts 330°
2026-05-05 21:20 36.08629 37.26049 34018 ft 472 kts 330°
2026-05-05 21:20 36.14630 37.22775 34026 ft 471 kts 330°
2026-05-05 21:21 36.20224 37.18781 34020 ft 460 kts 320°
2026-05-05 21:21 36.25398 37.14125 34017 ft 459 kts 318°
2026-05-05 21:22 36.30514 37.09347 34012 ft 463 kts 318°
2026-05-05 21:22 36.35659 37.04525 34001 ft 464 kts 318°
2026-05-05 21:23 36.40814 36.99709 33990 ft 464 kts 318°
2026-05-05 21:23 36.45950 36.94884 33982 ft 462 kts 319°
2026-05-05 21:24 36.51073 36.90054 33982 ft 462 kts 319°
2026-05-05 21:24 36.56196 36.85220 33978 ft 462 kts 319°
2026-05-05 21:25 36.61316 36.80384 33981 ft 462 kts 319°
2026-05-05 21:25 36.66434 36.75544 33981 ft 462 kts 319°
2026-05-05 21:26 36.71541 36.70705 33987 ft 460 kts 319°
2026-05-05 21:26 36.76625 36.65881 33984 ft 459 kts 319°
2026-05-05 21:27 36.81702 36.61041 33991 ft 459 kts 318°
2026-05-05 21:27 36.86738 36.56148 33999 ft 459 kts 318°
2026-05-05 21:28 36.91773 36.51239 34001 ft 459 kts 318°
2026-05-05 21:28 36.96800 36.46344 33999 ft 457 kts 319°
2026-05-05 21:29 37.01826 36.41463 34002 ft 457 kts 319°
2026-05-05 21:29 37.06843 36.36585 34005 ft 457 kts 319°
2026-05-05 21:30 37.11826 36.31732 34007 ft 457 kts 319°
2026-05-05 21:30 37.16837 36.26841 34008 ft 457 kts 319°
2026-05-05 21:31 37.21880 36.21909 34003 ft 461 kts 319°
2026-05-05 21:31 37.26934 36.16961 34005 ft 461 kts 319°
2026-05-05 21:32 37.31982 36.12010 34003 ft 460 kts 319°
2026-05-05 21:32 37.37031 36.07049 34007 ft 460 kts 319°
2026-05-05 21:33 37.42072 36.02087 34007 ft 460 kts 319°
2026-05-05 21:33 37.47116 35.97111 34024 ft 460 kts 320°
2026-05-05 21:34 37.52156 35.92131 33998 ft 461 kts 320°
2026-05-05 21:34 37.57194 35.87147 34016 ft 461 kts 320°
2026-05-05 21:35 37.62232 35.82152 34019 ft 461 kts 320°
2026-05-05 21:35 37.67270 35.77149 34017 ft 461 kts 319°
2026-05-05 21:36 37.72299 35.72147 34001 ft 458 kts 320°
2026-05-05 21:36 37.77285 35.67177 34019 ft 456 kts 320°
2026-05-05 21:37 37.82250 35.62219 34018 ft 455 kts 320°
2026-05-05 21:37 37.87213 35.57255 34020 ft 454 kts 320°
2026-05-05 21:38 37.92139 35.52319 34014 ft 454 kts 320°
2026-05-05 21:38 37.97124 35.47314 34020 ft 452 kts 320°
2026-05-05 21:39 38.02002 35.42410 34043 ft 450 kts 320°
2026-05-05 21:39 38.06934 35.37441 34034 ft 451 kts 320°
2026-05-05 21:40 38.11829 35.32502 34043 ft 453 kts 320°
2026-05-05 21:40 38.16757 35.27522 34040 ft 453 kts 320°
2026-05-05 21:41 38.21679 35.22537 34040 ft 452 kts 320°
2026-05-05 21:41 38.26584 35.17560 34041 ft 450 kts 320°
2026-05-05 21:42 38.31475 35.12588 34044 ft 450 kts 320°
2026-05-05 21:42 38.36363 35.07612 34045 ft 451 kts 320°
2026-05-05 21:43 38.41279 35.02608 34041 ft 452 kts 320°
2026-05-05 21:43 38.46198 34.97607 34041 ft 452 kts 320°
2026-05-05 21:44 38.51100 34.92614 34045 ft 450 kts 320°
2026-05-05 21:44 38.55988 34.87624 34039 ft 450 kts 320°
2026-05-05 21:45 38.60873 34.82627 34041 ft 450 kts 320°
2026-05-05 21:45 38.65758 34.77620 34045 ft 451 kts 320°
2026-05-05 21:46 38.70659 34.72589 34036 ft 452 kts 321°
2026-05-05 21:46 38.75554 34.67555 34046 ft 450 kts 321°
2026-05-05 21:47 38.80435 34.62527 34047 ft 450 kts 321°
2026-05-05 21:47 38.85317 34.57489 34048 ft 450 kts 320°
2026-05-05 21:48 38.90195 34.52444 34047 ft 450 kts 320°
2026-05-05 21:48 38.95071 34.47392 34035 ft 452 kts 321°
2026-05-05 21:49 38.99969 34.42308 34042 ft 452 kts 321°
2026-05-05 21:49 39.04856 34.37227 34039 ft 452 kts 321°
2026-05-05 21:50 39.09743 34.32136 34038 ft 452 kts 321°
2026-05-05 21:50 39.14324 34.26621 34039 ft 452 kts 312°
2026-05-05 21:51 39.18439 34.20488 34025 ft 452 kts 311°
2026-05-05 21:51 39.22465 34.14269 34040 ft 451 kts 310°
2026-05-05 21:52 39.28468 34.04951 34031 ft 454 kts 311°
2026-05-05 21:53 39.32511 33.98685 34026 ft 454 kts 311°
2026-05-05 21:53 39.36556 33.92410 34025 ft 454 kts 311°
2026-05-05 21:54 39.40598 33.86128 34025 ft 454 kts 311°
2026-05-05 21:54 39.44633 33.79844 34025 ft 454 kts 311°
2026-05-05 21:55 39.48651 33.73527 34022 ft 454 kts 310°
2026-05-05 21:55 39.52601 33.67137 34007 ft 454 kts 310°
2026-05-05 21:56 39.56541 33.60737 34008 ft 454 kts 310°
2026-05-05 21:56 39.60514 33.54363 34025 ft 454 kts 311°
2026-05-05 21:57 39.64558 33.48068 34025 ft 454 kts 311°
2026-05-05 21:57 39.68608 33.41768 34026 ft 454 kts 311°
2026-05-05 21:58 39.72648 33.35446 34010 ft 455 kts 311°
2026-05-05 21:58 39.76673 33.29119 34028 ft 454 kts 311°
2026-05-05 21:59 39.80697 33.22774 34028 ft 454 kts 310°
2026-05-05 21:59 39.84713 33.16432 34008 ft 454 kts 310°
2026-05-05 22:00 39.88732 33.10073 34029 ft 455 kts 311°
2026-05-05 22:00 39.92740 33.03720 34026 ft 454 kts 311°
2026-05-05 22:01 39.96751 32.97347 34022 ft 454 kts 310°
2026-05-05 22:01 40.00758 32.90969 34014 ft 454 kts 310°
2026-05-05 22:02 40.04766 32.84575 34030 ft 456 kts 311°
2026-05-05 22:02 40.08749 32.78118 34030 ft 457 kts 308°
2026-05-05 22:03 40.11782 32.72459 34033 ft 458 kts 306°
2026-05-05 22:03 40.15313 32.65536 34025 ft 458 kts 306°
2026-05-05 22:04 40.18903 32.58607 34039 ft 461 kts 306°
2026-05-05 22:04 40.22541 32.51695 34041 ft 461 kts 307°
2026-05-05 22:05 40.26190 32.44785 34046 ft 461 kts 307°
2026-05-05 22:05 40.29836 32.37865 34050 ft 462 kts 307°
2026-05-05 22:06 40.33483 32.30925 34054 ft 462 kts 307°
2026-05-05 22:06 40.37127 32.23970 34059 ft 462 kts 307°
2026-05-05 22:07 40.40767 32.17007 34066 ft 464 kts 307°
2026-05-05 22:07 40.44417 32.10016 34064 ft 465 kts 307°
2026-05-05 22:08 40.48027 32.03050 34078 ft 465 kts 307°
2026-05-05 22:08 40.51656 31.96027 34056 ft 464 kts 307°
2026-05-05 22:09 40.55288 31.88990 34069 ft 466 kts 307°
2026-05-05 22:09 40.58502 31.81572 34069 ft 470 kts 295°
2026-05-05 22:10 40.60723 31.73457 34065 ft 472 kts 291°
2026-05-05 22:10 40.62757 31.65215 34069 ft 474 kts 291°
2026-05-05 22:11 40.64765 31.56940 34075 ft 475 kts 291°
2026-05-05 22:11 40.66785 31.48660 34074 ft 475 kts 291°
2026-05-05 22:12 40.68809 31.40387 34069 ft 475 kts 291°
2026-05-05 22:12 40.70836 31.32086 34079 ft 476 kts 291°
2026-05-05 22:13 40.72855 31.23786 34078 ft 476 kts 291°
2026-05-05 22:13 40.74870 31.15473 34079 ft 476 kts 291°
2026-05-05 22:14 40.76879 31.07151 34076 ft 476 kts 291°
2026-05-05 22:14 40.78878 30.98837 34084 ft 475 kts 291°
2026-05-05 22:15 40.80866 30.90541 34081 ft 474 kts 291°
2026-05-05 22:15 40.82850 30.82235 34077 ft 474 kts 291°
2026-05-05 22:16 40.84828 30.73923 34079 ft 474 kts 291°
2026-05-05 22:16 40.86800 30.65613 34085 ft 474 kts 291°
2026-05-05 22:17 40.88458 30.57150 34085 ft 477 kts 286°
2026-05-05 22:17 40.89874 30.48587 34083 ft 477 kts 286°
2026-05-05 22:18 40.91318 30.40040 34087 ft 476 kts 286°
2026-05-05 22:18 40.92812 30.31522 34085 ft 475 kts 287°
2026-05-05 22:19 40.94315 30.23008 34091 ft 475 kts 287°
2026-05-05 22:19 40.95807 30.14485 34097 ft 476 kts 287°
2026-05-05 22:20 40.97283 30.06009 34095 ft 476 kts 287°
2026-05-05 22:20 40.98762 29.97484 34075 ft 476 kts 287°
2026-05-05 22:21 41.00229 29.88945 34062 ft 476 kts 286°
2026-05-05 22:21 41.01673 29.80380 34084 ft 477 kts 286°
2026-05-05 22:22 41.03114 29.71804 34080 ft 477 kts 286°
2026-05-05 22:22 41.04553 29.63219 34076 ft 477 kts 286°
2026-05-05 22:23 41.05995 29.54636 34069 ft 478 kts 286°
2026-05-05 22:23 41.07440 29.46040 34073 ft 478 kts 286°
2026-05-05 22:24 41.08878 29.37433 34072 ft 478 kts 286°
2026-05-05 22:24 41.10310 29.28811 34073 ft 479 kts 286°
2026-05-05 22:25 41.11738 29.20195 34074 ft 479 kts 286°
2026-05-05 22:25 41.14030 29.12024 34069 ft 472 kts 302°
2026-05-05 22:26 41.17478 29.04631 34073 ft 470 kts 306°
2026-05-05 22:26 41.21106 28.97410 34062 ft 470 kts 306°
2026-05-05 22:27 41.24729 28.90240 34074 ft 471 kts 306°
2026-05-05 22:27 41.28357 28.82991 34074 ft 471 kts 306°
2026-05-05 22:28 41.31968 28.75728 34075 ft 471 kts 306°
2026-05-05 22:28 41.35578 28.68443 34074 ft 472 kts 305°
2026-05-05 22:29 41.39184 28.61148 34074 ft 472 kts 305°
2026-05-05 22:29 41.42788 28.53840 34073 ft 472 kts 305°
2026-05-05 22:30 41.46388 28.46525 34070 ft 472 kts 304°
2026-05-05 22:30 41.50271 28.39480 34079 ft 471 kts 314°
2026-05-05 22:31 41.54831 28.33211 34085 ft 471 kts 316°
2026-05-05 22:31 41.59491 28.27078 34078 ft 471 kts 317°
2026-05-05 22:32 41.64177 28.20939 34078 ft 473 kts 316°
2026-05-05 22:32 41.68871 28.14752 34078 ft 474 kts 316°
2026-05-05 22:33 41.73552 28.08550 34075 ft 474 kts 316°
2026-05-05 22:33 41.78230 28.02335 34075 ft 474 kts 316°
2026-05-05 22:34 41.82905 27.96111 34076 ft 474 kts 316°
2026-05-05 22:34 41.87578 27.89876 34076 ft 473 kts 316°
2026-05-05 22:35 41.92211 27.83683 34073 ft 473 kts 316°
2026-05-05 22:35 41.96877 27.77432 34306 ft 472 kts 315°
2026-05-05 22:35 41.99185 27.74327 34616 ft 468 kts 315°
2026-05-05 22:36 42.01468 27.71211 34878 ft 467 kts 315°
2026-05-05 22:36 42.03735 27.68095 35072 ft 466 kts 315°
2026-05-05 22:36 42.05996 27.64982 35231 ft 465 kts 315°
2026-05-05 22:36 42.08259 27.61864 35390 ft 465 kts 315°
2026-05-05 22:37 42.10514 27.58759 35622 ft 462 kts 315°
2026-05-05 22:37 42.12760 27.55668 35824 ft 461 kts 315°
2026-05-05 22:37 42.15003 27.52581 35900 ft 462 kts 315°
2026-05-05 22:38 42.19526 27.46349 36010 ft 465 kts 315°
2026-05-05 22:38 42.24067 27.40079 36074 ft 470 kts 315°
2026-05-05 22:39 42.28631 27.33763 36074 ft 469 kts 315°
2026-05-05 22:39 42.33178 27.27454 36078 ft 468 kts 315°
2026-05-05 22:40 42.37722 27.21138 36078 ft 468 kts 315°
2026-05-05 22:40 42.42255 27.14822 36077 ft 467 kts 315°
2026-05-05 22:41 42.46767 27.08521 36084 ft 466 kts 315°
2026-05-05 22:41 42.51256 27.02240 36083 ft 467 kts 315°
2026-05-05 22:42 42.55800 26.95866 36074 ft 467 kts 315°
2026-05-05 22:42 42.60281 26.89568 36082 ft 465 kts 315°
2026-05-05 22:43 42.64766 26.83249 36084 ft 465 kts 315°
2026-05-05 22:43 42.69248 26.76920 36084 ft 465 kts 315°
2026-05-05 22:44 42.73727 26.70584 36073 ft 464 kts 315°
2026-05-05 22:44 42.78204 26.64235 36082 ft 465 kts 315°
2026-05-05 22:45 42.82218 26.57322 36084 ft 468 kts 302°
2026-05-05 22:45 42.85401 26.49589 36077 ft 468 kts 300°
2026-05-05 22:46 42.88434 26.41730 36075 ft 468 kts 299°
2026-05-05 22:46 42.91440 26.33862 36070 ft 467 kts 299°
2026-05-05 22:47 42.94450 26.26010 36070 ft 467 kts 299°
2026-05-05 22:47 42.97464 26.18155 36058 ft 467 kts 299°
2026-05-05 22:48 43.00474 26.10299 36047 ft 466 kts 299°
2026-05-05 22:48 43.03468 26.02459 36039 ft 465 kts 299°
2026-05-05 22:49 43.06457 25.94610 36030 ft 465 kts 299°
2026-05-05 22:49 43.09440 25.86756 36015 ft 465 kts 299°
2026-05-05 22:50 43.12413 25.78905 36030 ft 464 kts 299°
2026-05-05 22:50 43.15487 25.71160 36013 ft 462 kts 305°
2026-05-05 22:51 43.18524 25.65158 36014 ft 461 kts 307°
2026-05-05 22:51 43.22286 25.58044 36022 ft 461 kts 308°
2026-05-05 22:52 43.26080 25.50931 36022 ft 462 kts 308°
2026-05-05 22:52 43.29867 25.43799 36018 ft 462 kts 307°
2026-05-05 22:53 43.33644 25.36650 36017 ft 462 kts 307°
2026-05-05 22:53 43.37411 25.29492 35999 ft 461 kts 307°
2026-05-05 22:54 43.41161 25.22352 35992 ft 461 kts 307°
2026-05-05 22:54 43.44907 25.15202 36011 ft 461 kts 307°
2026-05-05 22:55 43.48649 25.08044 35988 ft 460 kts 307°
2026-05-05 22:55 43.52382 25.00884 35997 ft 460 kts 307°
2026-05-05 22:56 43.56111 24.93716 35997 ft 460 kts 307°
2026-05-05 22:56 43.59837 24.86535 35994 ft 461 kts 307°
2026-05-05 22:57 43.63566 24.79332 35979 ft 461 kts 307°
2026-05-05 22:57 43.67287 24.72126 35987 ft 460 kts 307°
2026-05-05 22:58 43.70998 24.64921 35984 ft 460 kts 307°
2026-05-05 22:58 43.74705 24.57706 35986 ft 460 kts 307°
2026-05-05 22:59 43.78453 24.50536 35980 ft 460 kts 308°
2026-05-05 22:59 43.82305 24.43476 35982 ft 459 kts 308°
2026-05-05 23:00 43.88048 24.32923 35988 ft 459 kts 308°
2026-05-05 23:00 43.91867 24.25829 35977 ft 459 kts 308°
2026-05-05 23:01 43.95677 24.18722 35985 ft 460 kts 307°
2026-05-05 23:01 43.99491 24.11591 35988 ft 460 kts 307°
2026-05-05 23:02 44.03301 24.04449 35987 ft 460 kts 307°
2026-05-05 23:02 44.07106 23.97302 35982 ft 460 kts 307°
2026-05-05 23:03 44.10908 23.90144 35990 ft 460 kts 307°
2026-05-05 23:03 44.14700 23.82985 35990 ft 460 kts 307°
2026-05-05 23:04 44.18489 23.75815 35993 ft 460 kts 307°
2026-05-05 23:04 44.22276 23.68632 35989 ft 460 kts 307°
2026-05-05 23:05 44.26062 23.61431 35994 ft 460 kts 307°
2026-05-05 23:05 44.29845 23.54219 36006 ft 461 kts 307°
2026-05-05 23:06 44.33625 23.46996 36003 ft 460 kts 307°
2026-05-05 23:06 44.37397 23.39769 35997 ft 460 kts 306°
2026-05-05 23:07 44.41160 23.32540 36001 ft 459 kts 306°
2026-05-05 23:07 44.44914 23.25312 36007 ft 459 kts 306°
2026-05-05 23:08 44.48666 23.18069 36006 ft 459 kts 306°
2026-05-05 23:08 44.52385 23.10871 36007 ft 459 kts 306°
2026-05-05 23:09 44.56119 23.03627 36008 ft 458 kts 306°
2026-05-05 23:09 44.59842 22.96385 36009 ft 458 kts 306°
2026-05-05 23:10 44.63567 22.89122 36015 ft 459 kts 306°
2026-05-05 23:10 44.67295 22.81834 36014 ft 460 kts 306°
2026-05-05 23:11 44.71022 22.74531 36021 ft 460 kts 306°
2026-05-05 23:11 44.74747 22.67213 36023 ft 460 kts 306°
2026-05-05 23:12 44.78466 22.59889 36025 ft 460 kts 306°
2026-05-05 23:12 44.82183 22.52560 36029 ft 459 kts 306°
2026-05-05 23:13 44.85886 22.45228 36033 ft 459 kts 305°
2026-05-05 23:13 44.89586 22.37885 36032 ft 459 kts 305°
2026-05-05 23:14 44.93280 22.30536 36034 ft 459 kts 305°
2026-05-05 23:14 44.96971 22.23178 36040 ft 459 kts 305°
2026-05-05 23:15 45.00659 22.15806 36028 ft 460 kts 305°
2026-05-05 23:15 45.04346 22.08416 36023 ft 460 kts 305°
2026-05-05 23:16 45.08029 22.01015 36023 ft 460 kts 305°
2026-05-05 23:16 45.11706 21.93606 36011 ft 461 kts 305°
2026-05-05 23:17 45.15388 21.86170 36005 ft 461 kts 305°
2026-05-05 23:17 45.19062 21.78730 36001 ft 461 kts 305°
2026-05-05 23:18 45.22728 21.71286 35999 ft 461 kts 304°
2026-05-05 23:18 45.26396 21.63820 35999 ft 461 kts 304°
2026-05-05 23:19 45.30058 21.56346 35996 ft 461 kts 304°
2026-05-05 23:19 45.33717 21.48856 35995 ft 462 kts 304°
2026-05-05 23:20 45.37378 21.41344 35994 ft 462 kts 304°
2026-05-05 23:20 45.41011 21.33872 35993 ft 463 kts 304°
2026-05-05 23:21 45.44695 21.26273 35991 ft 463 kts 304°
2026-05-05 23:21 45.48322 21.18772 35990 ft 463 kts 304°
2026-05-05 23:22 45.51973 21.11200 35990 ft 463 kts 304°
2026-05-05 23:22 45.55616 21.03627 35990 ft 463 kts 304°
2026-05-05 23:23 45.59252 20.96046 35985 ft 463 kts 304°
2026-05-05 23:23 45.62883 20.88455 35982 ft 463 kts 303°
2026-05-05 23:24 45.66511 20.80852 35994 ft 463 kts 303°
2026-05-05 23:24 45.70140 20.73226 35977 ft 465 kts 303°
2026-05-05 23:25 45.73776 20.65562 35974 ft 465 kts 303°
2026-05-05 23:25 45.77407 20.57890 35974 ft 465 kts 303°
2026-05-05 23:26 45.81032 20.50210 35971 ft 465 kts 303°
2026-05-05 23:26 45.84649 20.42525 35971 ft 464 kts 303°
2026-05-05 23:27 45.88250 20.34854 35971 ft 463 kts 303°
2026-05-05 23:27 45.91842 20.27180 35969 ft 463 kts 303°
2026-05-05 23:28 45.95431 20.19493 35969 ft 463 kts 303°
2026-05-05 23:28 45.99012 20.11802 35971 ft 462 kts 303°
2026-05-05 23:29 46.02551 20.04182 35970 ft 461 kts 303°
2026-05-05 23:29 46.06120 19.96471 35969 ft 464 kts 302°
2026-05-05 23:30 46.09115 19.89988 35968 ft 464 kts 302°
2026-05-05 23:30 46.13259 19.80992 35968 ft 464 kts 302°
2026-05-05 23:31 46.16820 19.73238 35966 ft 464 kts 302°
2026-05-05 23:31 46.20060 19.65204 35964 ft 463 kts 297°
2026-05-05 23:32 46.23068 19.56985 35961 ft 463 kts 297°
2026-05-05 23:32 46.26033 19.48731 35960 ft 462 kts 296°
2026-05-05 23:33 46.28987 19.40483 35960 ft 462 kts 296°
2026-05-05 23:33 46.31939 19.32232 35954 ft 462 kts 296°
2026-05-05 23:34 46.34866 19.24037 35954 ft 462 kts 296°
2026-05-05 23:34 46.37808 19.15776 35955 ft 461 kts 296°
2026-05-05 23:35 46.40744 19.07507 35954 ft 461 kts 296°
2026-05-05 23:35 46.43675 18.99222 35953 ft 462 kts 296°
2026-05-05 23:36 46.46601 18.90928 35949 ft 462 kts 296°
2026-05-05 23:36 46.49521 18.82623 35942 ft 462 kts 296°
2026-05-05 23:37 46.52436 18.74307 35941 ft 462 kts 296°
2026-05-05 23:37 46.55343 18.65990 35941 ft 462 kts 296°
2026-05-05 23:38 46.58244 18.57659 35938 ft 462 kts 296°
2026-05-05 23:38 46.61138 18.49326 35941 ft 462 kts 295°
2026-05-05 23:39 46.64032 18.40966 35928 ft 463 kts 295°
2026-05-05 23:39 46.66923 18.32588 35928 ft 463 kts 295°
2026-05-05 23:40 46.69322 18.25614 35926 ft 463 kts 295°
2026-05-05 23:40 46.72667 18.15860 35927 ft 463 kts 295°
2026-05-05 23:41 46.75544 18.07443 35923 ft 465 kts 295°
2026-05-05 23:41 46.77958 18.00357 35924 ft 465 kts 295°
2026-05-05 23:42 46.80832 17.91898 35924 ft 465 kts 295°
2026-05-05 23:42 46.83702 17.83424 35913 ft 466 kts 295°
2026-05-05 23:43 46.86569 17.74931 35916 ft 467 kts 294°
2026-05-05 23:43 46.89415 17.66473 35908 ft 467 kts 294°
2026-05-05 23:44 46.92275 17.57942 35900 ft 467 kts 294°
2026-05-05 23:44 46.95132 17.49394 35904 ft 467 kts 294°
2026-05-05 23:45 46.97979 17.40850 35895 ft 467 kts 294°
2026-05-05 23:45 47.00823 17.32285 35896 ft 467 kts 294°
2026-05-05 23:46 47.03659 17.23716 35879 ft 467 kts 294°
2026-05-05 23:46 47.06487 17.15144 35877 ft 467 kts 294°
2026-05-05 23:47 47.09311 17.06553 35880 ft 467 kts 294°
2026-05-05 23:47 47.12125 16.97966 35870 ft 467 kts 294°
2026-05-05 23:48 47.14931 16.89373 35867 ft 467 kts 293°
2026-05-05 23:48 47.17731 16.80772 35862 ft 467 kts 293°
2026-05-05 23:49 47.20526 16.72156 35867 ft 467 kts 293°
2026-05-05 23:49 47.23311 16.63544 35854 ft 467 kts 293°
2026-05-05 23:50 47.26080 16.54949 35855 ft 468 kts 293°
2026-05-05 23:50 47.28862 16.46289 35847 ft 468 kts 293°
2026-05-05 23:51 47.31977 16.37856 35846 ft 470 kts 298°
2026-05-05 23:51 47.35318 16.29578 35847 ft 470 kts 298°
2026-05-05 23:52 47.38616 16.21265 35847 ft 469 kts 297°
2026-05-05 23:52 47.41853 16.12905 35853 ft 469 kts 297°
2026-05-05 23:53 47.45065 16.04520 35843 ft 469 kts 297°
2026-05-05 23:53 47.48269 15.96130 35857 ft 467 kts 296°
2026-05-05 23:54 47.51451 15.87774 35865 ft 466 kts 296°
2026-05-05 23:54 47.54631 15.79402 35864 ft 466 kts 296°
2026-05-05 23:55 47.57804 15.71024 35867 ft 468 kts 296°
2026-05-05 23:55 47.60992 15.62575 35865 ft 471 kts 296°
2026-05-05 23:56 47.64189 15.54084 35872 ft 472 kts 296°
2026-05-05 23:56 47.67381 15.45578 35873 ft 472 kts 296°
2026-05-05 23:57 47.70563 15.37072 35870 ft 471 kts 296°
2026-05-05 23:57 47.73739 15.28549 35890 ft 471 kts 295°
2026-05-05 23:58 47.76900 15.20045 35875 ft 471 kts 295°
2026-05-05 23:58 47.80056 15.11523 35873 ft 470 kts 295°
2026-05-05 23:59 47.83204 15.02999 35878 ft 470 kts 295°
2026-05-05 23:59 47.86344 14.94462 35897 ft 470 kts 295°
2026-05-06 00:00 47.89483 14.85904 35877 ft 471 kts 295°
2026-05-06 00:00 47.92619 14.77326 35878 ft 472 kts 295°
2026-05-06 00:01 47.95732 14.68781 35879 ft 472 kts 295°
2026-05-06 00:01 47.98860 14.60176 35872 ft 471 kts 294°
2026-05-06 00:02 48.01978 14.51565 35864 ft 471 kts 294°
2026-05-06 00:02 48.05090 14.42944 35878 ft 471 kts 294°
2026-05-06 00:03 48.08192 14.34319 35871 ft 471 kts 294°
2026-05-06 00:03 48.11290 14.25677 35852 ft 471 kts 294°
2026-05-06 00:04 48.14381 14.17029 35860 ft 471 kts 293°
2026-05-06 00:04 48.17468 14.08361 35860 ft 472 kts 293°
2026-05-06 00:05 48.22087 13.95338 35886 ft 472 kts 293°
2026-05-06 00:06 48.25160 13.86635 35884 ft 473 kts 294°
2026-05-06 00:06 48.28241 13.77883 35884 ft 475 kts 293°
2026-05-06 00:07 48.31321 13.69106 35882 ft 475 kts 293°
2026-05-06 00:07 48.34394 13.60322 35884 ft 475 kts 293°
2026-05-06 00:08 48.37459 13.51524 35880 ft 475 kts 293°
2026-05-06 00:08 48.40517 13.42721 35886 ft 475 kts 293°
2026-05-06 00:09 48.43511 13.33855 35877 ft 474 kts 288°
2026-05-06 00:09 48.46037 13.24696 35878 ft 473 kts 287°
2026-05-06 00:10 48.48464 13.15504 35878 ft 472 kts 287°
2026-05-06 00:10 48.50874 13.06277 35889 ft 473 kts 287°
2026-05-06 00:11 48.53277 12.97063 35872 ft 472 kts 287°
2026-05-06 00:11 48.55671 12.87891 35870 ft 472 kts 287°
2026-05-06 00:12 48.58065 12.78666 35874 ft 472 kts 287°
2026-05-06 00:12 48.60454 12.69417 35872 ft 472 kts 287°
2026-05-06 00:13 48.62839 12.60147 35868 ft 474 kts 287°
2026-05-06 00:13 48.65228 12.50836 35865 ft 475 kts 287°
2026-05-06 00:14 48.67608 12.41525 35866 ft 475 kts 287°
2026-05-06 00:14 48.69982 12.32198 35864 ft 475 kts 287°
2026-05-06 00:15 48.72348 12.22860 35861 ft 475 kts 286°
2026-05-06 00:15 48.74750 12.13528 35858 ft 478 kts 290°
2026-05-06 00:16 48.77746 12.04510 35859 ft 480 kts 293°
2026-05-06 00:16 48.80876 11.95554 35857 ft 480 kts 293°
2026-05-06 00:17 48.84018 11.86609 35883 ft 481 kts 293°
2026-05-06 00:17 48.87151 11.77636 35853 ft 481 kts 293°
2026-05-06 00:18 48.90273 11.68640 35853 ft 481 kts 293°
2026-05-06 00:18 48.93389 11.59625 35849 ft 481 kts 293°
2026-05-06 00:19 48.96498 11.50600 35847 ft 482 kts 293°
2026-05-06 00:19 48.99608 11.41535 35845 ft 484 kts 293°
2026-05-06 00:20 49.02723 11.32426 35855 ft 485 kts 293°
2026-05-06 00:20 49.05816 11.23355 35850 ft 485 kts 293°
2026-05-06 00:21 49.08927 11.14219 35853 ft 486 kts 294°
2026-05-06 00:21 49.12910 11.05827 35859 ft 494 kts 311°
2026-05-06 00:22 49.17856 10.98476 35861 ft 497 kts 313°
2026-05-06 00:22 49.22949 10.91300 35856 ft 498 kts 314°
2026-05-06 00:23 49.28053 10.84112 35853 ft 499 kts 314°
2026-05-06 00:23 49.33105 10.76813 35849 ft 498 kts 309°
2026-05-06 00:24 49.37398 10.68566 35852 ft 494 kts 303°
2026-05-06 00:24 49.41447 10.60045 35850 ft 494 kts 302°
2026-05-06 00:25 49.45445 10.51474 35832 ft 494 kts 302°
2026-05-06 00:25 49.49449 10.42884 35832 ft 494 kts 302°
2026-05-06 00:26 49.53455 10.34289 35851 ft 495 kts 302°